Home > Weather > Ibbenbüren > Past weeks

Flag for Germany Past Weather in Ibbenbüren, North Rhine-Westphalia, Germany — Yesterday and Last 2 Weeks

Now
59 °F

Light rain. Broken clouds.


Feels Like: 59 °F
Forecast: 54 / 65 °F
Wind: 5 mph from West

Location: Muenster / Osnabrueck

Current Time: Jun 25, 2016 at 9:36:01 PM

Latest Report: Jun 25, 2016 at 9:20 PM


Visibility: 4 mi

Pressure: 29.98 "Hg

Humidity: 94%

Dew Point: 57 °F

Location of IbbenbürenLocation

Past Weather in Ibbenbüren — Graph

°F

Ibbenbüren Temperature Yesterday

Maximum temperature yesterday: 81 °F (at 12:50 PM)
Minimum temperature yesterday: 66 °F (at 2:50 AM)
Average temperature yesterday: 71 °F

High & Low Weather Summary for the Past Weeks

 TemperatureHumidityPressure
High91 °F (Jun 23, 5:20 PM)100% (Jun 12, 11:50 PM)30.24 "Hg (Jun 12, 11:50 PM)
Low48 °F (Jun 20, 1:50 AM)38% (Jun 11, 3:20 PM)29.45 "Hg (Jun 14, 5:50 PM)
Average63 °F80%29.87 "Hg
* Reported Jun 10 8:20 PM — Jun 25 8:20 PM, Ibbenbüren, Weather by CustomWeather, © 2016

Note: Actual official high and low records may vary slightly from our data, if they occured in-between our weather recording intervals... More about our weather records

Advertising

Ibbenbüren Weather History for the Previous 24 Hours

Scroll right to see more
 ConditionsComfort  
Time TempWeatherWind HumidityBarometerVisibility
8:20 PM
Sat, Jun 25
59 °FLight rain. Broken clouds.6 mph94%29.95 "Hg5 mi
7:50 PM59 °FLight rain. Broken clouds.3 mph94%29.95 "Hg6 mi
7:20 PM59 °FLight rain. Partly sunny.7 mph94%29.95 "Hg6 mi
6:50 PM59 °FLight rain. Broken clouds.6 mph94%29.95 "Hg5 mi
6:20 PM59 °FLight rain. More clouds than sun.8 mph88%29.95 "Hg6 mi
5:50 PM59 °FLight rain. Broken clouds.10 mph88%29.95 "Hg4 mi
5:20 PM59 °FLight rain. Broken clouds.10 mph94%29.95 "Hg4 mi
4:50 PM59 °FLight rain. Broken clouds.9 mph94%29.95 "Hg4 mi
4:20 PM61 °FLight rain. Broken clouds.12 mph94%29.92 "Hg4 mi
3:50 PM61 °FLight rain. Broken clouds.9 mph94%29.92 "Hg3 mi
3:20 PM61 °FLight rain. Broken clouds.9 mph94%29.92 "Hg2 mi
2:50 PM61 °FLight rain. Broken clouds.7 mph100%29.92 "Hg3 mi
2:20 PM61 °FLight rain. Fog.7 mph100%29.92 "Hg3 mi
1:50 PM61 °FLight rain. Fog.7 mph94%29.95 "Hg3 mi
1:20 PM63 °FLight rain. Fog.6 mph88%29.95 "Hg2 mi
12:50 PM63 °FLight rain. Fog.9 mph94%29.95 "Hg2 mi
12:20 PM63 °FRain. Broken clouds.7 mph94%29.95 "Hg3 mi
11:50 AM63 °FLight rain. Broken clouds.6 mph94%29.95 "Hg3 mi
11:20 AM63 °FLight rain. Broken clouds.6 mph94%29.95 "Hg3 mi
10:50 AM63 °FLight rain. Broken clouds.2 mph94%29.95 "Hg2 mi
10:20 AM63 °FLight rain. Broken clouds.5 mph94%29.95 "Hg2 mi
9:50 AM63 °FLight rain. Mostly cloudy.17 mph94%29.89 "Hg2 mi
9:20 AM63 °FRain. Fog.7 mph94%29.98 "Hg2 mi
8:50 AM64 °FRain. Fog.3 mph94%29.98 "Hg2 mi
8:20 AM64 °FLight rain. Fog.3 mph94%29.98 "Hg3 mi
7:50 AM64 °FFog.6 mph94%29.98 "Hg2 mi
7:20 AM66 °FLight rain. Fog.5 mph88%29.98 "Hg2 mi
6:50 AM64 °FFog.2 mph94%29.98 "Hg2 mi
6:20 AM64 °FFog.2 mph100%29.98 "Hg1 mi
5:50 AM64 °FFog.3 mph100%29.98 "Hg1 mi
5:20 AM64 °FFog.5 mph100%30.01 "Hg1 mi
4:50 AM64 °FFog.5 mph100%30.01 "Hg2 mi
4:20 AM64 °FFog.3 mph94%30.01 "Hg2 mi
3:50 AM64 °FFog.5 mph94%30.01 "Hg3 mi
3:20 AM64 °FPassing clouds.5 mph94%30.01 "Hg4 mi
2:50 AM64 °FPassing clouds.5 mph94%30.01 "Hg4 mi
2:20 AM63 °FPassing clouds.3 mph100%30.04 "Hg5 mi
1:50 AM64 °FPassing clouds.No wind94%30.04 "Hg5 mi
1:20 AM64 °FPassing clouds.No wind94%30.04 "Hg6 mi
12:50 AM64 °FPassing clouds.2 mph94%30.04 "Hg6 mi
12:20 AM64 °FPassing clouds.2 mph94%30.04 "HgN/A
11:50 PM
Fri, Jun 24
66 °FPassing clouds.1 mph88%30.04 "HgN/A
11:20 PM68 °FPassing clouds.2 mph88%30.04 "HgN/A
10:50 PM68 °FPartly sunny.5 mph88%30.04 "HgN/A
10:20 PM70 °FPartly sunny.2 mph83%30.04 "HgN/A
9:50 PM70 °FPartly sunny.3 mph83%30.04 "HgN/A
9:20 PM70 °FPartly sunny.3 mph83%30.04 "HgN/A
Weather by CustomWeather, © 2016

See weather overviewHow to use our weather pages